No particular awareness of the weather is required.    There are no Weather-warnings


Meteo18 Weather Cam more information Meteo18 Weather Cam


Thunder radar more information blitzortung!


Rain radar more information rain snow radar


Visit our other weather sites:

Template documentation
and downloads

And another site



Weather Underground History page Text

Daily Summary for December 6, 2017 Units:  English    Metric   Both
« Previous Day
Next Day »
Daily Weekly Monthly Yearly Custom
  High: Low: Average:
Temperature: 36.3 °F 29.3 °F 33.8 °F
Dew Point: 35.6 °F 28.6 °F 32.5 °F
Humidity: 98 % 92 % 95 %
Wind Speed: 4 mph 0 mph 0.7 mph
Wind Gust: 7 mph - -
Wind:- - SSE
Pressure: 30.7 in 30.4 in -
Precipitation: 0.01 in    
Historical Graphs
 
 
Tabular Data for December 6, 2017
Time Temperature Dew Point Pressure Wind Wind Speed Wind Gust Humidity Rainfall Rate (Hourly)
00:02 32.9 °F 31.8 °F 30.7 in Calm     96 % 0.01 in
00:07 32.7 °F 31.6 °F 30.7 in Calm     96 % 0.01 in
00:12 32.5 °F 31.5 °F 30.7 in Calm     96 % 0.01 in
00:17 32.4 °F 31.3 °F 30.7 in Calm     96 % 0.01 in
00:22 32.4 °F 31.3 °F 30.7 in Calm     96 % 0.01 in
00:32 32 °F 30.9 °F 30.7 in Calm   1 mph 96 % 0.01 in
00:42 31.6 °F 30.6 °F 30.7 in Calm     96 % 0.01 in
00:47 31.5 °F 30.4 °F 30.7 in Calm     96 % 0.01 in
00:52 31.3 °F 30.2 °F 30.7 in Calm   1 mph 96 % 0.01 in
00:57 30.9 °F 29.8 °F 30.7 in Calm   1 mph 96 % 0.01 in
01:02 30.7 °F 29.7 °F 30.6 in Calm   1 mph 96 % 0 in
01:07 30.6 °F 29.5 °F 30.6 in Calm   1 mph 96 % 0 in
01:12 30.6 °F 29.8 °F 30.6 in NNW 1 mph 1 mph 97 % 0 in
01:22 30.4 °F 29.7 °F 30.6 in Calm   1 mph 97 % 0 in
01:32 30 °F 29.3 °F 30.6 in Calm   1 mph 97 % 0 in
01:37 30 °F 29.3 °F 30.6 in Calm   1 mph 97 % 0 in
01:42 29.8 °F 29.1 °F 30.6 in Calm   1 mph 97 % 0 in
01:47 29.7 °F 28.9 °F 30.6 in Calm     97 % 0 in
01:52 29.5 °F 28.8 °F 30.6 in Calm     97 % 0 in
02:02 29.3 °F 28.6 °F 30.6 in Calm     97 % 0 in
02:07 29.3 °F 28.6 °F 30.6 in Calm   1 mph 97 % 0 in
02:12 29.5 °F 28.8 °F 30.6 in North 1 mph 1 mph 97 % 0 in
02:17 29.7 °F 28.9 °F 30.6 in Calm   1 mph 97 % 0 in
02:22 29.7 °F 28.9 °F 30.6 in Calm   1 mph 97 % 0 in
02:27 29.5 °F 28.8 °F 30.6 in Calm   1 mph 97 % 0 in
02:32 29.5 °F 28.8 °F 30.6 in Calm   1 mph 97 % 0 in
02:37 29.5 °F 28.8 °F 30.6 in Calm   1 mph 97 % 0 in
02:42 29.5 °F 28.8 °F 30.6 in Calm   1 mph 97 % 0 in
02:47 29.8 °F 29.1 °F 30.6 in Calm   1 mph 97 % 0 in
02:52 29.8 °F 29.1 °F 30.6 in Calm     97 % 0 in
02:57 29.7 °F 28.9 °F 30.6 in Calm     97 % 0 in
03:02 29.8 °F 29.1 °F 30.6 in Calm     97 % 0 in
03:12 30.2 °F 29.5 °F 30.6 in Calm     97 % 0 in
03:17 30 °F 29.3 °F 30.6 in Calm     97 % 0 in
03:27 30 °F 29.3 °F 30.6 in Calm     97 % 0 in
03:37 30 °F 29.3 °F 30.6 in Calm     97 % 0 in
03:42 30.7 °F 30 °F 30.6 in Calm     97 % 0 in
03:47 30.9 °F 30.2 °F 30.6 in Calm     97 % 0 in
03:52 30.7 °F 30.2 °F 30.6 in Calm     98 % 0 in
03:57 30.6 °F 29.8 °F 30.6 in Calm     97 % 0 in
04:02 30 °F 29.3 °F 30.6 in Calm     97 % 0 in
04:07 30.2 °F 29.5 °F 30.6 in Calm   1 mph 97 % 0 in
04:12 30.9 °F 30.2 °F 30.6 in Calm   1 mph 97 % 0 in
04:17 31.5 °F 30.9 °F 30.6 in Calm   1 mph 98 % 0 in
04:22 31.6 °F 31.1 °F 30.6 in Calm   1 mph 98 % 0 in
04:27 31.6 °F 31.1 °F 30.6 in East 1 mph 1 mph 98 % 0 in
04:32 32.2 °F 31.6 °F 30.6 in East 1 mph 2 mph 98 % 0 in
04:37 32.2 °F 31.6 °F 30.6 in Calm   2 mph 98 % 0 in
04:42 32.4 °F 31.8 °F 30.6 in Calm   2 mph 98 % 0 in
04:47 32.5 °F 32 °F 30.6 in East 1 mph 4 mph 98 % 0 in
04:52 32.7 °F 32.2 °F 30.6 in SE 2 mph 4 mph 98 % 0 in
04:57 32.7 °F 32.2 °F 30.6 in Calm   4 mph 98 % 0 in
05:02 32.7 °F 32.2 °F 30.6 in Calm   2 mph 98 % 0 in
05:07 32.5 °F 32 °F 30.6 in Calm   2 mph 98 % 0 in
05:17 32.7 °F 32 °F 30.6 in Calm   1 mph 97 % 0 in
05:22 32.5 °F 31.8 °F 30.6 in Calm     97 % 0 in
05:32 32.7 °F 32 °F 30.6 in Calm     97 % 0 in
05:42 32.7 °F 32 °F 30.6 in Calm     97 % 0 in
05:47 32.7 °F 32 °F 30.6 in Calm     97 % 0 in
05:52 32.5 °F 31.8 °F 30.6 in Calm     97 % 0 in
06:02 32.4 °F 31.6 °F 30.6 in Calm     97 % 0 in
06:12 32.4 °F 31.6 °F 30.6 in Calm     97 % 0 in
06:17 32.4 °F 31.6 °F 30.6 in Calm     97 % 0 in
06:22 32.2 °F 31.5 °F 30.6 in Calm     97 % 0 in
06:32 32.2 °F 31.5 °F 30.6 in Calm     97 % 0 in
06:37 32 °F 31.3 °F 30.6 in Calm     97 % 0 in
06:42 32.2 °F 31.5 °F 30.6 in Calm     97 % 0 in
06:47 32.2 °F 31.5 °F 30.6 in Calm     97 % 0 in
06:52 32.4 °F 31.6 °F 30.6 in Calm     97 % 0 in
07:02 32.4 °F 31.6 °F 30.6 in Calm     97 % 0 in
07:12 32.2 °F 31.5 °F 30.6 in Calm     97 % 0 in
07:17 32.2 °F 31.5 °F 30.6 in Calm     97 % 0 in
07:22 32.2 °F 31.5 °F 30.6 in Calm     97 % 0 in
07:32 32.2 °F 31.5 °F 30.6 in Calm     97 % 0 in
07:42 31.8 °F 31.1 °F 30.6 in NNE 2 mph   97 % 0 in
07:52 32.2 °F 31.5 °F 30.6 in North 1 mph 2 mph 97 % 0 in
07:57 32.4 °F 31.6 °F 30.6 in Calm   2 mph 97 % 0 in
08:02 32.4 °F 31.6 °F 30.6 in Calm   1 mph 97 % 0 in
08:07 32.4 °F 31.6 °F 30.6 in Calm   1 mph 97 % 0 in
08:12 32.2 °F 31.5 °F 30.6 in Calm   1 mph 97 % 0 in
08:17 32.2 °F 31.5 °F 30.6 in Calm   1 mph 97 % 0 in
08:22 32.4 °F 31.6 °F 30.6 in Calm   1 mph 97 % 0 in
08:32 32.2 °F 31.5 °F 30.6 in Calm   1 mph 97 % 0 in
08:42 32.2 °F 31.5 °F 30.6 in Calm   1 mph 97 % 0 in
08:47 32.2 °F 31.5 °F 30.6 in Calm     97 % 0 in
08:57 31.8 °F 31.1 °F 30.6 in Calm     97 % 0 in
09:07 31.8 °F 31.1 °F 30.6 in Calm   1 mph 97 % 0 in
09:12 31.8 °F 31.1 °F 30.6 in Calm   1 mph 97 % 0 in
09:17 31.8 °F 31.1 °F 30.6 in Calm   1 mph 97 % 0 in
09:22 31.8 °F 31.1 °F 30.6 in Calm   1 mph 97 % 0 in
09:32 31.8 °F 31.1 °F 30.6 in WNW 1 mph 1 mph 97 % 0 in
09:42 32.2 °F 31.5 °F 30.6 in Calm   1 mph 97 % 0 in
09:52 32.4 °F 31.6 °F 30.6 in Calm   1 mph 97 % 0 in
09:57 32.5 °F 31.8 °F 30.6 in Calm     97 % 0 in
10:02 32.7 °F 32.2 °F 30.6 in Calm     98 % 0 in
10:12 32.7 °F 32.2 °F 30.6 in Calm   1 mph 98 % 0 in
10:17 33.1 °F 32.5 °F 30.6 in Calm   1 mph 98 % 0.01 in
10:22 33.3 °F 32.7 °F 30.6 in Calm   1 mph 98 % 0.01 in
10:32 33.6 °F 33.1 °F 30.6 in Calm     98 % 0.01 in
10:37 33.8 °F 33.3 °F 30.6 in Calm     98 % 0.01 in
10:42 34 °F 33.4 °F 30.6 in Calm     98 % 0.01 in
10:47 34.2 °F 33.6 °F 30.6 in Calm     98 % 0.01 in
10:52 34.2 °F 33.6 °F 30.6 in Calm     98 % 0.01 in
11:02 34.2 °F 33.6 °F 30.6 in Calm     98 % 0.01 in
11:12 34.3 °F 33.6 °F 30.6 in Calm   1 mph 97 % 0.01 in
11:17 34.3 °F 33.6 °F 30.6 in Calm   1 mph 97 % 0 in
11:22 34.5 °F 33.8 °F 30.6 in Calm   1 mph 97 % 0 in
11:27 34.5 °F 33.8 °F 30.6 in South 1 mph 2 mph 97 % 0 in
11:32 34.7 °F 34 °F 30.6 in Calm   2 mph 97 % 0 in
11:37 34.7 °F 34 °F 30.6 in Calm   2 mph 97 % 0 in
11:42 34.9 °F 34.2 °F 30.6 in Calm   2 mph 97 % 0 in
11:47 34.9 °F 34.2 °F 30.6 in SSE 1 mph 2 mph 97 % 0 in
11:52 34.9 °F 34.2 °F 30.6 in Calm   2 mph 97 % 0 in
12:02 35.1 °F 34.3 °F 30.6 in Calm   3 mph 97 % 0 in
12:12 35.2 °F 34.5 °F 30.6 in SSE 2 mph 3 mph 97 % 0 in
12:17 35.2 °F 34.5 °F 30.6 in SSE 1 mph 4 mph 97 % 0 in
12:22 35.2 °F 34.5 °F 30.6 in Calm   4 mph 97 % 0 in
12:32 35.4 °F 34.7 °F 30.6 in Calm   3 mph 97 % 0 in
12:42 35.4 °F 34.7 °F 30.6 in ESE 1 mph 3 mph 97 % 0 in
12:47 35.4 °F 34.7 °F 30.6 in Calm   3 mph 97 % 0 in
12:52 35.8 °F 35.1 °F 30.6 in Calm   2 mph 97 % 0 in
12:57 35.8 °F 35.1 °F 30.5 in SE 1 mph 3 mph 97 % 0 in
13:02 35.8 °F 35.1 °F 30.5 in SE 3 mph 3 mph 97 % 0 in
13:07 35.8 °F 35.1 °F 30.5 in SE 1 mph 3 mph 97 % 0 in
13:12 35.8 °F 35.1 °F 30.5 in ESE 1 mph 3 mph 97 % 0 in
13:17 35.8 °F 35.1 °F 30.5 in SSE 1 mph 5 mph 97 % 0 in
13:22 36 °F 35.2 °F 30.5 in ESE 2 mph 5 mph 97 % 0 in
13:27 36.1 °F 35.4 °F 30.5 in ESE 1 mph 5 mph 97 % 0 in
13:32 36 °F 35.2 °F 30.5 in ESE 1 mph 4 mph 97 % 0 in
13:42 36 °F 35.2 °F 30.5 in SE 1 mph 6 mph 97 % 0 in
13:47 36 °F 35.2 °F 30.5 in Calm   6 mph 97 % 0 in
13:52 36.1 °F 35.4 °F 30.5 in SE 1 mph 5 mph 97 % 0 in
13:57 36.1 °F 35.4 °F 30.5 in SE 3 mph 5 mph 97 % 0 in
14:02 36.3 °F 35.6 °F 30.5 in Calm   4 mph 97 % 0 in
14:07 36.3 °F 35.2 °F 30.5 in Calm   4 mph 96 % 0 in
14:12 36.3 °F 35.2 °F 30.5 in SSE 1 mph 4 mph 96 % 0 in
14:17 36.3 °F 35.2 °F 30.5 in Calm   4 mph 96 % 0 in
14:22 36.3 °F 35.2 °F 30.5 in Calm   4 mph 96 % 0 in
14:27 36.3 °F 35.2 °F 30.5 in Calm   4 mph 96 % 0 in
14:32 36.3 °F 35.2 °F 30.5 in SE 3 mph 4 mph 96 % 0 in
14:42 36.1 °F 34.9 °F 30.5 in ESE 2 mph 5 mph 95 % 0 in
14:47 36.1 °F 34.9 °F 30.5 in Calm   5 mph 95 % 0 in
14:52 36.1 °F 34.5 °F 30.5 in East 1 mph 5 mph 94 % 0 in
14:57 36.3 °F 34.7 °F 30.5 in SSE 1 mph 3 mph 94 % 0 in
15:02 36.1 °F 34.5 °F 30.5 in ESE 3 mph 3 mph 94 % 0 in
15:07 36.1 °F 34.5 °F 30.5 in Calm   4 mph 94 % 0 in
15:12 36.1 °F 34.5 °F 30.5 in South 1 mph 4 mph 94 % 0 in
15:17 36.1 °F 34.3 °F 30.5 in SSE 1 mph 4 mph 93 % 0 in
15:22 36.1 °F 34.3 °F 30.5 in Calm   4 mph 93 % 0 in
15:27 36.1 °F 34.3 °F 30.5 in SE 2 mph 4 mph 93 % 0 in
15:32 36.1 °F 34.3 °F 30.5 in East 1 mph 6 mph 93 % 0 in
15:42 36.1 °F 34.3 °F 30.5 in SE 2 mph 6 mph 93 % 0 in
15:47 36 °F 34.2 °F 30.5 in ESE 2 mph 5 mph 93 % 0 in
15:52 36.1 °F 34.3 °F 30.5 in Calm   5 mph 93 % 0 in
15:57 36.1 °F 34.3 °F 30.5 in East 2 mph 5 mph 93 % 0 in
16:02 36.1 °F 34.3 °F 30.5 in East 1 mph 4 mph 93 % 0 in
16:07 36.1 °F 34.3 °F 30.5 in East 1 mph 2 mph 93 % 0 in
16:12 36.1 °F 34.3 °F 30.5 in SE 1 mph 4 mph 93 % 0 in
16:17 36.1 °F 34.3 °F 30.5 in SE 1 mph 4 mph 93 % 0 in
16:22 36 °F 34.2 °F 30.5 in SE 1 mph 4 mph 93 % 0 in
16:27 36 °F 33.8 °F 30.5 in SE 1 mph 6 mph 92 % 0 in
16:32 36.1 °F 34.3 °F 30.5 in Calm   6 mph 93 % 0 in
16:42 36 °F 33.8 °F 30.5 in South 3 mph 4 mph 92 % 0 in
16:47 36 °F 33.8 °F 30.5 in SSE 2 mph 5 mph 92 % 0 in
16:52 36 °F 33.8 °F 30.5 in Calm   5 mph 92 % 0 in
17:02 36 °F 33.8 °F 30.5 in Calm   4 mph 92 % 0 in
17:07 36 °F 33.8 °F 30.5 in Calm   2 mph 92 % 0 in
17:12 36 °F 34.2 °F 30.5 in Calm   2 mph 93 % 0 in
17:17 36 °F 34.2 °F 30.5 in Calm   2 mph 93 % 0 in
17:22 36 °F 34.2 °F 30.5 in SE 1 mph 3 mph 93 % 0 in
17:32 35.8 °F 34 °F 30.5 in ESE 2 mph 4 mph 93 % 0 in
17:37 36 °F 34.2 °F 30.5 in Calm   4 mph 93 % 0 in
17:42 35.8 °F 33.6 °F 30.5 in SE 1 mph 4 mph 92 % 0 in
17:47 35.6 °F 33.4 °F 30.5 in SE 2 mph 5 mph 92 % 0 in
17:52 35.8 °F 33.6 °F 30.5 in Calm   6 mph 92 % 0 in
17:57 35.8 °F 33.6 °F 30.5 in SE 2 mph 6 mph 92 % 0 in
18:02 35.8 °F 33.6 °F 30.5 in Calm   6 mph 92 % 0 in
18:12 35.8 °F 33.6 °F 30.5 in SE 1 mph 4 mph 92 % 0 in
18:17 35.8 °F 33.6 °F 30.5 in Calm   4 mph 92 % 0 in
18:22 35.8 °F 33.6 °F 30.5 in South 2 mph 4 mph 92 % 0 in
18:32 35.6 °F 33.4 °F 30.5 in SE 1 mph 4 mph 92 % 0 in
18:42 35.8 °F 33.6 °F 30.5 in SSE 1 mph 4 mph 92 % 0 in
18:47 35.8 °F 33.6 °F 30.5 in SE 1 mph 4 mph 92 % 0 in
18:52 35.8 °F 33.6 °F 30.5 in SSE 1 mph 3 mph 92 % 0 in
18:57 35.8 °F 33.6 °F 30.5 in ESE 2 mph 3 mph 92 % 0 in
19:02 35.8 °F 33.6 °F 30.5 in Calm   4 mph 92 % 0 in
19:07 35.8 °F 33.6 °F 30.5 in SE 2 mph 5 mph 92 % 0 in
19:12 35.8 °F 33.6 °F 30.5 in SE 1 mph 5 mph 92 % 0 in
19:17 35.8 °F 33.6 °F 30.5 in Calm   5 mph 92 % 0 in
19:22 35.8 °F 33.6 °F 30.5 in Calm   4 mph 92 % 0 in
19:27 35.8 °F 33.6 °F 30.5 in SE 1 mph 3 mph 92 % 0 in
19:32 35.6 °F 33.4 °F 30.5 in SSW 3 mph 3 mph 92 % 0 in
19:42 35.6 °F 33.4 °F 30.5 in SSE 1 mph 3 mph 92 % 0 in
19:47 35.6 °F 33.4 °F 30.5 in Calm   4 mph 92 % 0 in
19:52 35.6 °F 33.4 °F 30.5 in SE 2 mph 4 mph 92 % 0 in
19:57 35.6 °F 33.4 °F 30.5 in SE 2 mph 4 mph 92 % 0 in
20:02 35.6 °F 33.4 °F 30.5 in South 4 mph 4 mph 92 % 0 in
20:07 35.6 °F 33.4 °F 30.5 in SE 2 mph 6 mph 92 % 0 in
20:12 35.6 °F 33.4 °F 30.5 in SE 2 mph 6 mph 92 % 0 in
20:17 35.6 °F 33.4 °F 30.5 in East 2 mph 6 mph 92 % 0 in
20:27 35.6 °F 33.8 °F 30.5 in ESE 3 mph 5 mph 93 % 0 in
20:32 35.6 °F 33.8 °F 30.5 in Calm   5 mph 93 % 0 in
20:42 35.4 °F 33.6 °F 30.4 in Calm   4 mph 93 % 0 in
20:47 35.4 °F 33.6 °F 30.4 in SSE 2 mph 3 mph 93 % 0 in
20:57 35.4 °F 33.6 °F 30.4 in SSE 3 mph 5 mph 93 % 0 in
21:02 35.4 °F 33.6 °F 30.4 in Calm   5 mph 93 % 0 in
21:07 35.4 °F 33.6 °F 30.4 in Calm   5 mph 93 % 0 in
21:12 35.2 °F 33.4 °F 30.4 in SSE 1 mph 5 mph 93 % 0 in
21:17 35.2 °F 33.4 °F 30.4 in South 2 mph 4 mph 93 % 0 in
21:22 35.2 °F 33.4 °F 30.4 in South 2 mph 5 mph 93 % 0 in
21:27 35.1 °F 33.3 °F 30.4 in Calm   6 mph 93 % 0 in
21:32 35.1 °F 33.3 °F 30.4 in South 3 mph 6 mph 93 % 0 in
21:42 35.1 °F 33.4 °F 30.4 in SE 2 mph 5 mph 94 % 0 in
21:47 34.9 °F 33.3 °F 30.4 in Calm   5 mph 94 % 0 in
21:52 34.9 °F 33.3 °F 30.4 in SSW 1 mph 4 mph 94 % 0 in
21:57 34.7 °F 33.1 °F 30.4 in SSW 2 mph 6 mph 94 % 0 in
22:02 34.5 °F 32.9 °F 30.4 in South 1 mph 6 mph 94 % 0 in
22:07 34.5 °F 32.9 °F 30.4 in SSE 1 mph 6 mph 94 % 0 in
22:12 34.5 °F 32.9 °F 30.4 in SE 1 mph 6 mph 94 % 0 in
22:17 34.3 °F 32.7 °F 30.4 in South 4 mph 6 mph 94 % 0 in
22:22 34.3 °F 32.7 °F 30.4 in Calm   7 mph 94 % 0 in
22:27 34.3 °F 32.7 °F 30.4 in SE 1 mph 7 mph 94 % 0 in
22:32 34.3 °F 32.7 °F 30.4 in SE 2 mph 7 mph 94 % 0 in
22:42 34.2 °F 32.9 °F 30.4 in SSW 4 mph 7 mph 95 % 0 in
23:02 34.2 °F 32.9 °F 30.4 in South 2 mph 5 mph 95 % 0 in
23:07 34.2 °F 32.9 °F 30.4 in SSE 1 mph 5 mph 95 % 0 in
23:12 34 °F 32.7 °F 30.4 in SE 1 mph 6 mph 95 % 0 in
23:17 34 °F 32.7 °F 30.4 in SW 1 mph 6 mph 95 % 0 in
23:22 34 °F 32.7 °F 30.4 in SSE 1 mph 6 mph 95 % 0 in
23:27 34 °F 32.7 °F 30.4 in SW 1 mph 6 mph 95 % 0 in
23:32 34 °F 32.7 °F 30.4 in SSE 1 mph 6 mph 95 % 0 in
23:37 33.8 °F 32.5 °F 30.4 in SSW 2 mph 6 mph 95 % 0 in
23:42 33.6 °F 32.4 °F 30.4 in South 1 mph 7 mph 95 % 0 in
23:47 33.6 °F 32.4 °F 30.4 in SSE 1 mph 7 mph 95 % 0 in
23:52 33.6 °F 32.4 °F 30.4 in SSE 2 mph 7 mph 95 % 0 in
23:57 33.6 °F 32.4 °F 30.4 in SSW 1 mph 5 mph 95 % 0 in
Meteo18
Compliments of Weather Underground - 4 mb

Script developed by  Jim McMurry - jmcmurry@mwt.net Adapted for the template by  Wim van der Kuil - Leuven-Template.eu

You find our weather info also at:

European Weather Network

Weather Underground

Equipment we use:

Weather-station
Davis Vue

Weather-program
Meteohub

Weather-server
Raspberry PI 2 B+

Provider
1 and 1

Davis Vue

Meteohub

Raspberry PI 2 B+

1 and 1